Miscellaneous Local Product
Issued by NWS Hastings, NE

Home | Current Version | Previous Version | Graphics & Text | Print | Product List | Glossary On
Versions: 1 2 3 4 5 6 7 8 9 10 11 12 13 14 15 16 17 18 19 20 21 22 23 24 25 26 27 28 29 30 31 32 33 34 35 36 37 38 39 40 41 42 43 44 45 46 47 48 49 50
689
AXUS43 KGID 230002
MISGRI

GID CWA HOURLY WEATHER ROUNDUP
NATIONAL WEATHER SERVICE HASTINGS NE
600 PM CST WED FEB 22 2017

NOTE: "FAIR" INDICATES FEW OR NO CLOUDS BELOW 12,000 FEET WITH NO
SIGNIFICANT WEATHER AND/OR OBSTRUCTIONS TO VISIBILITY.

...SOUTH CENTRAL NEBRASKA...

CITY           SKY/WX    TMP DP  RH WIND       PRES   REMARKS
GRAND ISLAND   CLEAR     60  31  33 N7        29.73R
HASTINGS       CLEAR     63  23  21 N8        29.73R
KEARNEY        CLEAR     64  21  19 N8        29.73S
ORD            CLEAR     58  29  33 N9        29.74R
YORK           CLEAR     61  32  33 N12       29.73R
AURORA         CLEAR     61  32  33 N8        29.73R
LEXINGTON      CLEAR     59  24  25 N7        29.74R
HOLDREGE       CLEAR     63  20  19 N5        29.73R
HEBRON         CLEAR     67  27  22 N8        29.71R

...NEBRASKA PANHANDLE...

CITY           SKY/WX    TMP DP  RH WIND       PRES   REMARKS
CHADRON        PTCLDY    51  22  31 N10       29.79R
ALLIANCE       CLOUDY    50  12  21 NW13      29.77R
SCOTTSBLUFF    CLOUDY    52  16  24 NW8       29.79R
SIDNEY         CLEAR     52  15  23 N14       29.79R

...WESTERN AND NORTH CENTRAL NEBRASKA...

CITY           SKY/WX    TMP DP  RH WIND       PRES   REMARKS
VALENTINE      CLEAR     52  25  35 N13       29.77R
AINSWORTH      CLEAR     51  28  40 N7        29.77R
ONEILL         CLEAR     54  31  42 NW7       29.77R
BROKEN BOW     CLEAR     58  25  28 N12       29.74R
IMPERIAL       CLEAR     58  21  24 NE10      29.75R
NORTH PLATTE   CLEAR     59  19  21 N7        29.75S
MCCOOK         CLEAR     61  24  24 NE7       29.74R

...EASTERN NEBRASKA...

CITY           SKY/WX    TMP DP  RH WIND       PRES   REMARKS
NORFOLK        CLEAR     57  30  35 N14       29.74R
SO SIOUX CITY  CLEAR     59  41  51 N18       29.72R
TEKAMAH        CLEAR     60  35  39 NW10      29.70R
COLUMBUS       CLEAR     59  34  38 N10       29.74R
ALBION         CLEAR     60  29  31 N9        29.76R
OMAHA EPPLEY   PTCLDY    64  38  38 NW16      29.69R
MILLARD        CLEAR     68  38  34 NW9G18    29.70R
LINCOLN        CLEAR     66  33  29 N12       29.72R
NEBRASKA CITY  CLEAR     65  29  25 N9        29.68R
BEATRICE       CLEAR     65  34  31 N10       29.69R
FALLS CITY     PTCLDY    69  37  30 N3        29.65R

...NORTHERN KANSAS...

CITY           SKY/WX    TMP DP  RH WIND       PRES   REMARKS
GOODLAND       CLEAR     60  22  23 E6        29.74S
HILL CITY      CLEAR     67  24  19 NE5       29.72S
NORTON         CLEAR     57  19  23 N7        29.72S
PHILLIPSBURG   CLEAR     66  23  19 NW7       29.71S
SMITH CENTER   CLEAR     63  27  25 N7        29.71S
HAYS             N/A     68  32  26 CALM      29.72R
RUSSELL        PTCLDY    68  31  25 N3        29.70R
CONCORDIA      PTCLDY    68  30  24 N5        29.69R
SALINA         PTCLDY    70  34  26 W8        29.68R
TOPEKA         CLOUDY    68  40  35 CALM      29.64S



USA.gov is the U.S. government's official web portal to all federal, state and local government web resources and services.